TimeEDT,TemperatureF,Dew PointF,Humidity,Sea Level PressureIn,VisibilityMPH,Wind Direction,Wind SpeedMPH,Gust SpeedMPH,PrecipitationIn,Events,Conditions,WindDirDegrees,DateUTC
12:54 AM,72.0,68.0,87,29.72,10.0,West,5.8,-,N/A,,Overcast,280,2013-09-13 04:54:00
1:54 AM,71.1,68.0,90,29.72,3.0,West,11.5,-,0.01,Rain,Heavy Rain,260,2013-09-13 05:54:00
1:59 AM,71.6,68.0,88,29.72,1.8,WNW,8.1,-,0.04,Rain,Heavy Rain,300,2013-09-13 05:59:00
2:11 AM,69.8,66.2,88,29.72,2.0,West,6.9,-,0.14,Rain,Heavy Rain,280,2013-09-13 06:11:00
2:29 AM,69.8,66.2,88,29.70,1.8,West,4.6,-,0.28,Rain,Heavy Rain,260,2013-09-13 06:29:00
2:40 AM,69.8,66.2,88,29.69,3.0,NW,4.6,-,0.34,Rain,Light Rain,320,2013-09-13 06:40:00
2:54 AM,69.1,66.9,93,29.68,9.0,WNW,3.5,-,0.35,Rain,Light Rain,290,2013-09-13 06:54:00
3:54 AM,68.0,66.0,93,29.68,9.0,Calm,Calm,-,0.00,,Overcast,0,2013-09-13 07:54:00
4:54 AM,68.0,66.0,93,29.68,7.0,Calm,Calm,-,N/A,,Clear,0,2013-09-13 08:54:00
5:10 AM,66.2,66.2,100,29.68,1.8,Calm,Calm,-,N/A,,Clear,0,2013-09-13 09:10:00
5:16 AM,66.2,66.2,100,29.68,0.8,Calm,Calm,-,N/A,,Mist,0,2013-09-13 09:16:00
5:28 AM,66.2,64.4,94,29.69,1.2,Calm,Calm,-,N/A,,Partly Cloudy,0,2013-09-13 09:28:00
5:37 AM,66.2,64.4,94,29.69,3.0,Calm,Calm,-,N/A,,Partly Cloudy,0,2013-09-13 09:37:00
5:54 AM,66.9,64.9,93,29.69,3.0,Calm,Calm,-,N/A,,Clear,0,2013-09-13 09:54:00
6:33 AM,68.0,66.2,94,29.70,5.0,NW,4.6,-,N/A,,Mostly Cloudy,310,2013-09-13 10:33:00
6:54 AM,69.1,66.9,93,29.70,5.0,NNW,5.8,-,N/A,,Overcast,340,2013-09-13 10:54:00
7:54 AM,69.1,66.0,90,29.71,9.0,NNW,9.2,-,N/A,,Mostly Cloudy,330,2013-09-13 11:54:00
8:54 AM,70.0,64.0,81,29.72,10.0,NW,6.9,-,N/A,,Clear,310,2013-09-13 12:54:00
9:54 AM,70.0,62.1,76,29.73,10.0,NW,9.2,-,N/A,,Clear,310,2013-09-13 13:54:00
10:54 AM,69.1,61.0,75,29.75,10.0,NW,9.2,-,N/A,,Mostly Cloudy,310,2013-09-13 14:54:00
11:54 AM,69.1,60.1,73,29.76,10.0,WNW,5.8,-,N/A,,Mostly Cloudy,290,2013-09-13 15:54:00
12:54 PM,73.0,57.9,59,29.75,10.0,NNW,11.5,-,N/A,,Partly Cloudy,330,2013-09-13 16:54:00
1:54 PM,77.0,57.9,52,29.72,10.0,NNW,11.5,16.1,N/A,,Scattered Clouds,330,2013-09-13 17:54:00
2:54 PM,78.1,55.0,45,29.71,10.0,West,13.8,21.9,N/A,,Mostly Cloudy,280,2013-09-13 18:54:00
3:54 PM,75.0,55.0,50,29.73,10.0,NW,9.2,20.7,N/A,,Overcast,310,2013-09-13 19:54:00
4:54 PM,75.9,54.0,46,29.75,10.0,NNW,9.2,-,N/A,,Partly Cloudy,330,2013-09-13 20:54:00
5:54 PM,73.0,51.1,46,29.76,10.0,NNW,13.8,-,N/A,,Partly Cloudy,340,2013-09-13 21:54:00
6:54 PM,69.1,51.1,53,29.79,10.0,NNW,8.1,-,N/A,,Clear,330,2013-09-13 22:54:00
7:54 PM,66.9,52.0,59,29.83,10.0,North,8.1,-,N/A,,Clear,350,2013-09-13 23:54:00
8:54 PM,66.0,51.1,59,29.86,10.0,NNW,10.4,-,N/A,,Clear,330,2013-09-14 00:54:00
9:54 PM,63.0,52.0,67,29.88,10.0,NNW,6.9,-,N/A,,Clear,340,2013-09-14 01:54:00
10:54 PM,62.1,51.1,67,29.89,10.0,NNW,10.4,-,N/A,,Clear,340,2013-09-14 02:54:00
11:54 PM,60.1,51.1,72,29.91,10.0,NNW,9.2,-,N/A,,Clear,330,2013-09-14 03:54:00